トータス彗星

C/2017 M5 ( TOTAS )

English version
Home page
Updated on November 23, 2017

---------------------------------------------------------------------

・ プロフィール

発見日 2017年6月23日
発見光度 18.6等
発見者 Teide Observatory Tenerife Asteroid Survey (TOTAS)

・ 写真集

・ 軌道要素

Epoch 2018 June 11.0 TT = JDT 2458280.5
T 2018 June 2.68635 TT                                  MPCW
q   5.9902541            (2000.0)            P               Q
z  -0.0005695      Peri.   92.62594     +0.60529557     +0.77935968
 +/-0.0000508      Node   216.26662     -0.79464130     +0.57974603
e   1.0034112      Incl.   15.88530     -0.04650245     +0.23768261
From 112 observations 2017 June 23-Oct. 14, mean residual 0".5.

・ 光度変化

        m1 = 6.5 + 5 logΔ + 10.0 log r

---------------------------------------------------------------------

軌道要素はM.P.E.C. 2017-V13に掲載されたものです。
光度グラフはComet for Windowsで作成したものです。

---------------------------------------------------------------------

Copyright(C) Seiichi Yoshida (comet@aerith.net). All rights reserved.